Wind_Speed
57 56 54 52 51 49 48 46 45 43 42 40 39 37 36 35 34 33 32 31 30 29 29 28 27 27 27 26 26 26 25 25 26 27 27 27 27 27 28 28 28 28 29 30 30 30 29 29 30 32 34 35 37 38 38 38 37 36 35 34 33 33 32 31 29 26 24 23 22 21 20 20 20 20 20 21 22 22 25 27 29 31 30 30 30 29 29 27
58 57 56 54 53 51 50 48 47 45 44 42 41 39 38 37 36 35 34 33 32 31 31 29 29 28 28 28 28 28 27 27 28 28 28 28 28 29 29 29 29 30 30 31 32 32 31 31 32 34 35 36 37 38 38 38 37 36 35 34 33 32 31 29 26 24 23 21 20 20 19 19 19 19 19 20 20 22 23 25 28 30 31 32 32 32 31 31
60 59 57 56 54 53 51 50 48 47 46 44 43 42 40 39 38 37 36 35 34 33 32 31 31 30 30 30 30 30 28 28 29 30 29 29 30 30 30 30 30 31 32 33 33 34 34 33 33 35 36 37 37 37 37 38 37 36 35 34 34 32 30 27 24 22 21 20 19 18 18 19 19 19 19 19 20 21 22 24 26 29 32 33 34 34 35 34
62 60 59 58 56 55 53 52 50 49 48 46 45 43 42 41 40 38 37 37 36 35 34 33 32 32 32 32 32 32 30 30 31 31 31 31 31 31 31 31 32 33 33 34 35 36 36 36 35 36 37 37 37 37 37 38 37 36 35 35 34 32 29 25 23 21 20 19 18 17 18 19 20 20 20 19 20 20 21 23 25 27 30 32 34 36 37 37
64 62 61 59 58 56 55 53 52 51 49 48 46 45 44 43 42 40 39 38 37 36 35 34 34 33 33 33 34 33 31 32 32 32 32 32 32 32 33 33 34 34 34 35 36 37 38 38 37 37 37 37 37 36 37 37 37 37 36 35 34 31 28 25 22 21 19 18 17 17 18 19 20 20 20 19 19 20 20 21 23 25 27 30 33 35 37 37
66 64 63 61 60 58 57 55 54 52 51 50 48 47 46 45 44 42 41 40 39 38 37 36 36 35 35 35 36 35 33 33 34 34 34 34 34 34 34 35 35 35 36 36 36 37 39 39 39 38 38 38 37 36 36 37 37 37 36 34 32 30 27 25 23 21 19 19 18 17 17 18 19 20 20 19 19 19 20 21 22 23 25 27 30 32 34 35
68 66 65 63 62 60 58 57 55 54 53 52 50 49 48 46 45 44 43 42 41 40 39 38 37 37 36 37 37 37 35 35 35 35 35 35 36 36 36 36 36 37 37 38 38 38 39 40 40 39 39 39 38 37 36 36 36 36 35 33 30 28 26 24 22 21 19 18 18 18 18 18 19 20 20 20 19 19 19 20 20 21 23 25 27 29 30 31
70 68 67 65 63 62 60 59 57 56 55 53 52 51 50 48 47 46 44 43 42 42 41 40 39 38 38 38 39 38 37 36 37 36 36 37 37 38 38 38 38 38 39 39 39 39 39 40 40 40 40 40 39 38 37 36 35 35 33 31 29 27 26 24 22 20 18 18 17 18 19 19 19 19 20 20 20 19 19 19 19 20 21 23 24 26 27 28
71 70 69 67 65 64 62 61 59 58 56 55 54 53 51 50 49 48 46 45 44 44 43 41 40 40 40 40 40 40 39 38 38 38 38 38 39 40 39 39 39 40 41 41 40 40 40 40 39 40 41 41 41 40 38 36 34 32 30 29 28 27 26 25 23 21 20 18 17 18 19 20 21 20 20 21 20 20 20 20 20 19 20 21 22 23 24 25
72 72 70 69 67 66 65 63 61 60 58 57 56 55 53 52 51 49 47 46 46 45 44 43 42 42 42 42 42 41 41 40 39 39 39 40 41 41 40 40 40 41 42 42 41 41 40 40 39 38 39 40 41 41 39 36 34 31 29 28 28 28 27 25 24 23 21 20 19 18 19 20 22 22 22 21 21 21 20 20 20 20 20 21 21 22 23 23
70 72 72 70 69 68 66 64 63 62 60 59 58 57 55 54 52 51 49 48 47 47 46 45 44 44 44 44 43 43 42 41 41 41 41 42 43 42 41 41 41 42 42 42 42 41 41 40 38 37 37 37 38 40 40 37 33 30 28 28 28 28 27 25 25 24 23 21 19 19 19 20 21 23 24 23 22 22 21 21 20 21 21 21 21 21 22 22
68 71 72 72 71 69 68 66 65 64 62 61 60 58 57 56 54 53 51 50 49 48 47 47 46 45 45 45 44 44 43 43 43 42 43 44 44 44 42 41 42 43 43 42 42 41 41 40 39 37 36 35 35 36 38 37 33 29 27 26 26 27 27 26 25 25 25 24 21 19 20 20 20 22 23 24 24 23 22 22 22 22 22 21 22 22 22 22
66 69 71 72 72 71 69 68 67 66 64 63 61 60 59 58 56 55 53 52 50 49 49 49 48 47 46 46 45 45 45 44 44 44 44 45 45 44 43 42 42 43 43 42 42 41 40 40 39 38 36 35 34 33 33 34 34 31 28 26 26 26 27 27 26 25 26 27 25 23 21 20 20 19 20 22 23 24 23 23 23 23 23 22 22 22 22 22
64 66 69 71 72 72 71 69 68 67 66 64 63 62 60 59 58 56 55 53 52 51 51 50 49 48 47 47 47 46 46 46 45 45 45 45 45 45 44 43 42 43 42 42 42 41 40 39 39 38 36 35 34 32 31 30 31 31 29 28 26 26 27 28 26 26 27 28 27 26 24 22 20 18 18 19 21 22 23 23 23 23 23 23 23 23 23 23
63 64 66 69 71 72 72 71 69 68 67 65 64 63 62 60 59 58 56 55 53 52 52 51 50 49 48 48 48 47 47 46 46 46 46 45 45 46 45 42 41 42 42 42 41 40 39 39 39 38 36 35 33 31 29 28 28 29 29 29 27 26 28 28 27 27 28 28 28 27 26 24 22 19 17 18 19 20 22 23 23 23 23 24 24 25 24 24
61 62 64 66 68 70 72 71 70 69 67 66 65 64 63 61 60 59 57 56 54 53 53 52 51 50 50 49 49 48 48 47 47 47 46 45 46 46 44 41 41 42 42 42 40 39 39 38 39 38 36 35 34 31 29 27 27 28 28 28 28 27 28 28 28 27 28 29 29 29 28 25 23 21 19 19 19 20 21 22 23 24 24 24 24 25 25 24
59 61 62 64 66 68 70 71 71 70 68 67 66 65 64 62 61 60 58 57 55 54 54 53 52 51 51 50 49 49 48 47 47 46 46 45 46 46 42 40 40 41 42 41 39 38 38 38 38 37 36 35 34 31 29 27 27 28 27 28 28 27 28 28 27 28 28 29 30 31 31 28 25 22 20 20 20 21 21 22 23 24 25 25 24 24 25 25
58 59 60 62 63 65 67 69 70 70 69 68 67 66 65 63 62 60 59 57 56 55 54 54 53 52 51 50 50 50 48 47 47 46 45 45 46 44 40 38 40 41 41 40 38 37 37 38 38 37 36 35 33 31 29 28 27 28 28 28 28 27 28 28 27 27 27 29 30 32 33 31 27 23 21 22 21 21 22 23 24 24 25 26 26 25 25 25
57 58 59 60 61 63 65 66 67 68 68 68 67 66 65 64 62 61 59 58 57 56 55 54 53 52 51 51 50 49 48 47 45 44 44 45 45 42 38 38 41 41 40 38 37 36 36 37 37 36 35 35 33 31 29 29 28 29 29 29 29 28 28 29 27 27 27 28 30 32 34 33 31 26 22 23 23 22 23 23 24 24 25 26 26 26 26 26
56 57 57 58 59 60 62 63 64 66 67 67 67 67 66 64 62 61 60 58 57 56 55 55 53 52 51 50 49 48 47 46 44 44 44 45 44 41 39 40 41 40 38 36 36 36 36 36 35 35 35 34 33 31 30 29 29 30 30 29 29 28 28 29 28 27 28 29 30 32 34 33 33 30 25 24 25 25 24 24 24 25 25 26 26 27 27 27
55 56 56 57 57 58 59 60 61 62 64 65 66 66 66 64 62 61 60 58 57 56 55 55 54 52 51 49 48 46 45 44 43 43 43 44 43 40 39 39 39 38 36 36 35 35 35 34 34 35 34 33 33 32 31 30 30 30 30 29 29 29 29 29 29 29 29 29 30 33 35 34 33 32 28 26 26 27 27 25 25 25 25 26 27 27 28 28
54 55 55 55 55 56 56 57 58 59 60 61 63 64 64 63 62 61 59 58 58 57 56 55 53 51 49 48 46 45 44 43 42 42 42 42 41 38 37 37 37 36 35 34 34 34 34 34 34 34 32 32 32 33 33 32 31 31 30 30 29 29 29 29 29 30 30 30 31 32 36 36 33 32 30 27 27 27 28 28 26 25 25 26 26 27 28 29
53 54 54 54 54 54 54 54 55 56 56 57 59 61 62 62 62 61 59 58 58 57 55 53 51 49 48 46 45 44 42 42 41 41 41 40 38 36 35 35 35 34 34 33 33 33 33 34 33 32 31 32 33 34 34 33 32 31 31 30 29 29 29 30 30 31 31 31 31 31 35 37 33 31 30 28 27 27 28 28 27 26 25 25 26 26 27 28
52 52 53 52 52 52 52 52 52 53 53 53 54 57 59 60 61 60 58 58 57 56 54 51 49 48 47 45 44 41 40 40 39 39 38 36 34 33 33 33 33 33 32 33 33 33 33 33 32 31 31 33 33 34 34 34 33 32 31 30 29 28 29 30 31 32 32 31 30 30 33 36 33 30 28 27 27 28 28 27 27 27 26 26 26 26 26 27
50 51 51 51 50 50 50 49 49 50 50 51 52 55 57 58 58 58 57 57 56 54 52 50 48 47 46 44 41 40 39 38 37 37 35 32 32 32 33 33 32 31 32 33 33 33 32 31 31 31 32 33 33 34 34 34 34 33 32 30 29 29 30 31 31 31 32 31 29 28 31 35 33 29 27 25 25 27 27 26 26 27 28 28 27 26 26 27
49 50 50 50 49 48 47 46 46 47 49 50 51 53 54 55 55 55 55 54 53 51 50 48 47 46 44 41 40 38 37 36 36 35 34 32 32 33 33 32 31 31 32 33 33 32 31 31 31 31 32 33 34 34 34 33 33 32 32 31 30 29 30 32 32 31 30 30 28 26 29 33 33 30 27 24 23 25 26 26 26 27 28 29 29 28 26 26
47 48 49 48 47 46 45 45 45 47 48 49 50 52 53 53 52 52 52 51 50 49 48 46 45 44 41 39 38 35 35 35 35 35 34 33 32 32 32 31 31 32 33 33 32 31 30 31 31 31 32 33 34 35 34 33 32 31 32 33 32 30 31 32 32 30 29 27 26 25 27 31 32 30 28 24 21 23 26 26 26 26 27 28 29 28 26 25
46 46 47 46 46 45 45 45 46 47 48 48 49 50 50 50 50 50 50 49 48 48 47 46 44 41 39 38 36 34 35 35 35 35 34 33 32 31 30 30 31 32 32 31 31 30 30 31 31 31 32 33 35 35 35 33 31 30 32 33 33 32 31 30 31 30 27 25 23 23 24 27 31 31 28 25 21 22 25 26 26 25 24 25 27 26 26 25
44 45 45 45 45 45 46 46 47 47 47 47 47 47 47 48 48 48 48 48 49 48 46 45 43 40 38 37 36 35 36 35 35 34 33 31 31 30 30 31 32 32 31 31 30 29 30 31 31 31 32 33 34 35 35 34 31 30 30 31 31 30 29 28 28 28 26 24 21 21 22 25 28 30 29 26 23 21 23 24 25 23 22 22 24 24 24 23
43 43 43 44 44 46 47 47 47 48 47 46 45 44 45 46 46 47 47 48 49 48 46 44 42 39 38 37 37 36 35 34 33 32 31 31 30 30 31 31 31 31 30 30 29 29 30 31 32 32 32 32 33 33 34 34 34 32 31 31 29 29 28 26 25 25 25 24 22 21 22 23 25 27 28 27 24 22 21 22 22 22 21 20 22 22 22 21
42 42 42 44 45 46 47 47 48 48 47 45 43 43 44 45 46 46 48 49 49 47 45 44 42 40 39 38 37 35 34 33 32 31 30 30 30 30 31 31 30 30 30 30 29 30 30 31 32 31 31 31 32 32 32 34 34 33 32 31 30 28 26 24 24 23 23 22 22 21 22 22 22 24 26 26 25 23 20 19 20 21 20 19 19 21 21 20
41 42 43 44 46 47 48 48 49 49 47 45 43 43 43 44 45 47 48 49 49 47 46 44 43 41 40 38 36 34 33 32 31 31 31 30 30 30 30 30 30 30 30 30 30 30 30 31 31 30 30 31 32 32 34 34 33 32 30 29 28 27 25 23 22 21 20 20 20 20 21 21 21 22 24 24 24 24 22 19 18 19 20 19 19 19 21 20
41 42 44 45 47 48 49 50 50 49 48 46 43 42 43 44 45 47 48 49 48 47 45 44 42 40 39 37 35 33 33 32 31 31 30 30 29 29 29 30 30 30 30 31 30 30 30 30 30 30 30 31 32 34 35 35 32 28 25 24 25 24 23 20 18 17 16 16 17 18 19 19 19 20 21 21 21 23 23 22 20 19 19 20 19 19 19 20
41 42 44 46 48 50 50 50 50 49 48 45 44 43 43 43 44 45 47 47 47 46 44 43 41 39 38 36 34 33 32 32 31 31 30 30 29 29 29 29 30 30 30 31 30 30 30 30 30 29 30 32 33 35 36 34 29 23 19 20 21 20 18 14 13 15 15 15 15 16 16 16 16 17 17 17 18 19 21 21 20 19 19 18 19 18 18 18
40 41 43 46 48 49 49 49 49 48 47 45 44 43 42 42 41 42 44 45 45 44 44 43 41 40 38 35 34 33 33 32 32 31 30 29 29 28 29 29 29 30 30 30 30 30 30 29 29 29 30 32 33 35 35 29 22 17 16 17 16 14 12 10 11 13 14 15 15 14 14 13 12 13 14 15 16 17 19 19 19 19 18 17 17 17 17 16
39 41 43 45 46 47 47 48 48 48 46 45 43 42 40 38 37 38 40 42 43 43 43 42 41 39 37 36 35 35 34 32 31 31 29 29 29 29 29 29 29 30 30 30 30 30 29 27 27 28 29 31 32 32 29 19 11 11 13 12 10 9 9 9 9 11 12 14 16 15 14 12 11 11 12 14 15 16 17 17 17 16 16 15 15 15 15 15
40 42 43 44 45 46 46 47 47 46 45 43 41 39 37 36 36 37 39 41 42 43 42 42 41 39 38 37 35 34 33 32 30 30 29 29 29 29 29 29 29 29 29 29 29 29 28 26 26 26 26 27 30 28 21 11 6 7 8 7 6 6 7 8 9 11 12 13 15 15 14 13 12 11 11 12 13 13 13 14 14 15 15 15 15 15 15 15
40 41 42 44 45 46 47 47 46 45 43 41 39 38 37 36 36 37 39 41 42 42 42 41 40 38 37 35 33 32 31 31 30 30 30 30 30 30 29 29 29 30 30 30 28 27 27 27 26 26 25 26 27 23 14 6 4 5 5 4 4 5 6 7 9 10 10 10 12 14 14 14 13 12 11 12 12 12 11 12 13 14 15 15 15 15 16 16
40 41 42 43 44 44 45 45 44 43 41 40 38 38 38 38 38 38 38 39 40 40 40 40 39 37 35 34 33 32 31 30 30 31 31 31 30 30 30 30 30 30 31 30 28 25 26 27 26 25 26 27 25 19 9 3 3 5 5 3 3 4 5 6 8 9 9 9 10 12 14 14 14 13 12 12 12 12 11 11 13 14 15 15 15 15 15 16
39 39 39 40 40 41 41 41 41 40 40 39 39 38 38 37 36 36 36 37 38 38 38 38 37 36 35 33 32 31 31 31 32 32 32 31 31 30 30 30 29 30 31 30 27 26 25 25 24 23 24 25 22 16 8 4 5 6 6 4 3 4 5 6 7 9 9 10 10 11 13 14 14 13 12 11 11 12 12 13 15 16 16 16 16 16 17 17
36 35 36 37 37 38 38 38 38 38 38 37 37 37 36 34 33 33 34 34 35 36 36 36 35 34 33 33 32 32 32 33 33 33 32 32 31 30 30 29 29 30 30 29 27 26 25 23 21 20 21 22 19 14 8 6 7 8 7 6 5 5 6 7 9 10 11 12 12 12 13 14 13 12 11 11 12 13 15 16 17 18 18 19 20 20 20 20
34 34 34 34 35 35 35 36 36 36 35 35 35 34 33 32 31 31 32 33 34 34 34 34 34 33 33 33 33 33 33 33 33 33 32 31 31 30 29 29 30 30 29 28 27 27 24 20 18 18 20 19 15 11 8 8 9 8 7 6 5 6 7 9 10 11 12 13 14 13 13 14 14 12 11 12 14 16 18 19 20 20 21 22 23 23 23 23
34 34 34 34 34 34 33 33 33 33 33 33 33 31 30 29 29 30 31 32 32 33 33 33 34 34 34 33 33 33 33 33 33 33 32 32 31 30 29 29 31 30 28 28 28 26 22 17 15 17 18 15 10 9 9 8 8 7 7 6 6 7 9 10 11 12 12 13 15 14 13 13 14 13 13 15 17 18 18 19 20 21 23 24 25 25 25 26
34 34 34 34 34 34 33 32 32 31 30 30 28 27 26 27 27 28 29 29 30 31 31 32 32 32 32 32 32 33 33 33 33 33 33 32 30 29 29 30 30 28 28 27 26 25 22 17 15 15 15 11 9 10 9 5 5 7 8 8 9 10 11 12 12 13 13 14 15 15 15 14 15 15 15 17 19 20 20 20 21 22 23 24 25 26 27 28
32 33 33 33 32 32 32 31 30 28 27 25 24 24 24 24 25 26 26 27 28 29 29 30 30 31 31 32 33 33 33 33 33 33 32 30 28 28 28 29 28 27 27 25 23 23 21 16 14 14 12 10 10 9 7 4 6 9 10 10 11 12 13 13 14 15 15 15 15 16 16 16 16 16 16 17 19 21 21 22 23 23 24 26 27 28 29 30
31 32 32 31 31 30 30 29 28 27 25 23 23 23 23 23 24 25 25 27 27 28 28 29 30 32 33 34 34 33 33 33 32 30 29 28 27 27 27 27 28 27 24 22 21 22 19 14 13 13 11 10 10 9 9 9 10 12 13 13 14 14 15 15 16 17 16 16 16 17 17 18 18 18 19 19 20 21 23 24 26 27 28 29 30 30 31 32
32 32 32 31 31 30 30 28 27 26 24 23 23 23 23 23 24 24 25 26 27 27 28 30 32 33 34 34 33 32 31 31 30 29 28 26 25 25 26 28 28 25 21 20 20 19 16 13 14 13 11 10 9 10 12 13 13 14 14 14 15 16 16 17 18 17 17 18 19 20 20 21 22 23 24 24 24 25 26 28 30 31 32 33 34 34 36 37
32 32 32 32 32 31 30 28 27 26 25 24 24 24 23 23 24 24 25 25 26 28 29 30 31 32 32 31 30 29 29 29 28 27 26 25 25 26 28 28 26 21 18 18 18 16 15 15 13 12 11 10 11 12 13 13 14 15 16 16 17 17 17 17 18 19 19 20 21 22 23 24 25 27 28 28 29 29 30 31 32 34 36 36 35 35 37 38
33 33 33 33 32 31 31 30 28 27 26 26 25 24 23 24 24 25 26 27 28 29 29 29 30 29 29 29 28 27 27 27 26 26 25 25 26 27 29 27 22 17 16 16 16 17 16 15 13 12 12 12 12 13 14 15 17 18 18 19 19 19 18 18 19 20 21 22 23 24 26 27 28 29 30 31 31 32 32 32 33 36 37 36 34 35 37 39
34 34 33 33 32 31 31 30 29 28 27 27 25 25 25 24 25 26 27 27 27 27 27 27 27 27 27 27 26 26 26 26 25 25 25 26 27 28 26 22 18 16 16 17 18 18 16 15 14 13 13 14 14 15 16 18 19 19 21 21 21 20 21 21 22 23 23 24 25 27 28 30 31 32 33 33 33 34 34 34 35 37 36 35 36 38 39 41
33 33 33 33 32 32 31 30 29 29 28 27 26 26 25 25 26 27 28 27 26 26 25 24 25 25 25 26 26 25 25 25 24 24 26 27 27 24 20 17 17 18 18 18 18 18 17 16 15 14 14 15 16 16 18 19 20 21 23 24 23 23 24 25 25 26 27 28 29 30 31 32 33 34 35 36 36 37 37 36 36 35 34 36 37 38 40 43
33 33 32 32 31 31 30 30 30 30 30 30 29 29 29 30 30 30 28 27 25 25 24 24 24 25 24 23 22 21 22 24 24 25 26 24 21 18 16 16 18 19 18 18 18 18 18 18 17 16 15 16 17 18 19 21 22 23 25 26 26 27 27 28 29 30 31 32 33 34 35 35 36 36 37 38 40 41 41 40 37 36 36 39 42 44 47 49
Wind_Direction
223 224 224 225 225 225 226 226 227 228 229 231 232 233 235 236 238 240 242 244 247 249 252 254 257 260 262 263 265 266 268 271 274 275 277 278 280 283 285 287 289 291 293 294 294 293 294 297 301 303 304 305 305 307 308 308 309 309 309 310 310 310 310 308 304 299 294 288 279 270 264 262 262 263 263 262 259 255 252 248 246 244 242 240 240 240 237 235
223 223 224 225 225 225 226 226 227 228 229 230 232 233 235 236 238 239 242 244 246 248 251 254 256 259 262 264 265 266 268 272 274 275 277 278 281 283 286 288 291 293 294 296 297 297 297 299 302 305 307 308 308 310 310 310 310 310 311 311 311 312 311 308 303 299 294 288 281 274 270 268 267 267 267 266 263 259 255 251 247 244 242 239 238 238 238 238
223 223 224 224 225 226 226 226 227 228 229 230 231 232 234 236 237 239 241 243 245 248 250 253 256 259 262 264 265 265 268 272 274 275 277 279 282 284 287 289 291 294 296 298 299 300 301 301 303 306 309 311 311 312 312 311 311 312 313 313 313 313 311 308 303 298 293 287 282 277 276 275 274 273 272 271 267 263 259 254 250 246 243 240 239 238 240 243
223 223 224 224 224 225 226 227 227 228 229 230 231 232 234 236 237 239 240 243 245 247 250 252 255 258 261 264 265 265 268 272 273 275 277 280 283 286 288 290 292 294 297 300 302 304 304 304 305 308 311 313 312 312 313 313 313 314 315 316 315 314 312 309 305 298 291 285 280 277 276 276 276 276 276 275 273 268 263 258 254 250 247 244 242 241 243 246
223 223 224 224 224 225 226 227 227 228 229 230 231 232 233 235 237 239 240 243 245 247 249 252 254 257 260 263 265 265 268 271 274 276 278 281 284 286 288 290 292 294 297 300 302 304 306 306 308 310 313 313 312 312 313 314 315 316 318 318 317 316 314 312 307 299 290 283 277 272 271 273 275 276 275 275 274 272 268 262 258 254 251 248 246 245 246 247
224 223 223 224 224 225 225 227 228 229 230 230 231 232 233 235 237 239 241 243 245 247 249 252 254 257 259 263 265 266 268 271 274 277 279 282 284 286 288 290 292 295 298 300 302 304 307 308 310 312 313 312 312 313 314 315 317 318 319 319 318 317 315 312 307 300 292 285 278 272 269 269 272 274 275 273 272 271 269 266 262 258 255 252 250 249 248 249
224 224 224 224 224 225 225 226 227 229 230 231 232 233 234 235 237 239 241 243 245 248 250 252 255 257 260 263 265 266 269 272 275 278 280 283 285 286 288 290 294 297 299 300 302 304 307 309 311 312 312 312 313 314 315 316 318 319 320 319 318 315 312 309 305 299 293 287 282 277 273 269 269 271 273 273 271 270 268 266 263 260 258 255 253 251 251 250
223 224 224 224 224 225 225 226 227 228 230 231 232 234 235 236 237 239 241 243 246 248 250 252 255 258 260 263 265 267 269 272 275 278 281 283 285 286 288 291 296 298 299 300 302 305 307 309 311 312 312 312 313 314 316 318 319 320 320 319 316 313 310 308 305 301 296 290 285 282 278 275 272 271 271 271 270 270 270 268 265 261 259 257 255 253 252 251
223 224 225 225 224 225 225 226 226 228 229 231 232 234 235 237 238 239 241 243 246 248 250 252 255 258 260 263 265 268 269 272 276 279 282 284 285 286 288 293 297 298 299 301 303 305 307 309 312 313 314 314 314 315 317 318 319 320 320 317 314 313 312 312 310 306 301 296 291 287 284 282 279 275 273 272 271 270 270 271 270 267 263 259 257 255 253 251
223 223 224 225 225 225 225 226 226 227 229 230 232 233 235 236 238 239 241 243 245 248 251 253 255 257 260 262 265 268 270 273 277 279 282 284 284 286 290 294 297 298 299 301 303 305 307 309 311 313 314 315 315 315 316 318 319 320 319 317 316 316 315 314 312 308 304 300 296 292 287 284 282 281 278 275 274 273 272 272 272 271 268 264 260 258 255 251
223 223 224 225 225 225 226 226 227 227 228 230 232 233 235 236 238 240 241 243 245 248 251 253 255 257 260 262 265 268 271 274 277 279 281 283 285 287 290 294 297 297 299 302 304 305 307 309 310 312 313 314 314 314 315 317 318 320 320 318 317 316 316 315 314 310 306 301 298 294 289 285 283 282 281 279 277 276 274 272 271 270 269 267 263 260 258 254
223 223 224 225 225 226 226 226 227 228 229 230 231 233 235 236 238 239 241 243 245 247 250 253 255 257 260 263 266 269 272 274 276 278 281 283 285 287 290 294 296 297 299 302 303 305 307 308 310 311 312 313 312 313 314 316 317 318 318 317 317 316 316 315 314 313 309 306 302 297 292 287 282 280 280 280 279 276 274 272 271 270 269 267 265 262 259 256
223 223 224 224 225 226 227 227 227 229 230 230 232 233 234 236 238 239 241 243 245 247 250 252 255 257 260 263 266 269 272 274 275 278 280 283 285 287 290 293 295 297 300 301 303 305 306 308 309 310 311 311 310 311 313 314 315 316 316 316 317 317 316 313 312 312 310 308 306 302 296 289 283 278 278 279 279 277 274 271 269 269 269 267 265 261 259 256
223 224 224 224 225 226 227 227 228 229 230 231 232 233 235 236 238 239 241 243 245 247 249 252 255 257 260 263 266 269 271 273 275 277 279 282 285 287 289 292 295 297 299 300 302 305 306 308 308 309 310 309 310 310 311 313 313 314 315 315 316 316 313 310 310 312 310 306 304 302 298 293 287 281 279 281 281 279 276 272 268 266 265 265 263 259 256 254
223 223 224 225 225 226 227 228 228 229 230 232 233 234 235 237 238 240 241 243 245 247 249 252 255 257 260 263 266 268 270 273 275 277 279 282 284 285 288 292 295 296 297 299 302 305 306 307 306 307 309 308 309 309 310 311 310 311 312 312 314 313 309 308 312 313 310 306 303 299 296 293 290 286 285 284 285 283 280 276 272 268 264 261 261 259 256 253
222 223 224 224 225 226 227 228 228 229 230 231 233 234 236 237 239 240 242 243 245 247 249 252 255 257 260 263 265 267 269 272 274 276 278 281 282 284 289 293 294 295 296 299 302 304 305 305 304 306 307 307 307 309 310 310 309 308 308 308 308 308 307 309 312 312 310 307 304 300 295 293 290 288 288 287 285 284 282 280 276 273 268 262 258 256 254 252
222 223 224 224 225 226 226 228 228 229 230 231 233 235 236 237 239 241 242 244 246 248 250 252 255 257 259 262 264 266 268 270 273 275 278 280 281 285 290 293 293 294 296 299 302 303 303 303 303 305 306 305 307 310 311 309 307 305 304 303 303 305 307 310 311 309 309 307 304 301 297 294 291 290 291 289 285 283 280 278 276 273 271 266 260 255 250 249
221 222 223 224 225 226 226 227 228 229 230 230 232 234 236 238 239 241 243 244 246 248 250 252 254 256 258 260 262 265 267 269 272 275 278 279 281 285 290 291 291 293 296 299 301 302 301 301 303 305 305 306 309 311 310 308 306 303 301 301 303 306 309 309 308 307 307 305 303 301 298 296 293 291 293 291 286 282 279 275 272 271 270 268 264 259 252 247
219 220 222 223 224 225 226 227 228 229 229 230 231 234 236 237 239 241 243 245 246 248 250 252 254 256 257 259 262 264 267 269 272 274 276 278 281 285 288 288 290 293 296 299 300 300 300 301 304 305 305 307 310 310 308 306 305 303 302 304 307 310 309 307 306 306 306 304 302 300 298 297 294 293 295 294 288 283 279 275 271 268 268 267 265 262 257 251
218 219 220 222 223 224 225 226 227 228 229 229 230 232 235 237 238 240 242 244 246 248 249 251 253 254 256 258 261 264 266 269 271 273 275 277 280 284 287 288 290 293 296 297 298 299 299 301 303 304 305 309 310 309 307 306 305 304 305 307 309 309 307 306 308 308 307 306 303 301 298 296 295 295 297 295 290 285 280 274 271 268 266 266 265 263 259 255
218 218 219 220 222 223 225 226 226 227 228 228 229 231 233 236 237 239 241 243 245 246 248 250 252 254 256 258 261 264 266 269 271 273 275 277 281 285 287 288 289 292 294 296 297 298 299 301 302 303 307 310 309 307 306 306 306 306 307 308 308 308 308 309 310 309 308 306 304 302 299 296 295 295 297 295 290 287 282 276 272 268 266 264 263 263 262 259
217 217 218 219 221 222 224 225 226 226 227 227 228 230 232 234 236 238 240 241 243 245 247 249 251 253 256 258 260 262 265 268 269 271 274 278 282 286 286 286 288 291 293 295 295 296 298 299 301 305 309 309 306 304 305 306 308 308 308 309 311 311 311 311 310 308 307 306 305 304 300 296 295 296 297 295 290 286 282 279 275 271 267 264 262 261 262 262
217 217 217 218 219 221 222 224 225 226 226 227 227 229 230 232 234 236 238 239 241 243 245 248 250 252 255 257 259 261 263 265 268 271 274 278 282 284 283 284 287 290 292 292 293 295 297 299 303 307 307 304 303 303 306 308 309 308 309 312 313 313 312 310 308 307 307 307 306 303 298 295 295 296 297 295 291 285 281 280 278 274 270 266 263 260 259 260
216 216 216 216 217 219 221 222 224 225 225 226 226 227 228 230 232 234 235 237 240 242 244 246 248 250 252 255 257 259 261 264 267 270 273 276 279 279 280 282 286 289 290 290 291 294 297 301 304 304 303 302 303 305 307 308 308 309 312 313 313 312 311 309 309 307 306 305 302 300 296 293 292 294 294 292 289 284 281 279 278 276 272 268 264 261 258 257
215 215 215 215 216 217 219 221 222 224 224 224 224 225 226 228 230 232 233 236 238 241 243 245 246 248 250 253 255 257 260 263 265 267 270 272 273 275 278 282 285 287 287 288 291 295 299 301 301 300 301 302 303 304 305 307 308 311 313 312 312 312 311 309 307 304 302 300 299 299 296 293 292 292 290 288 287 284 281 279 277 275 272 268 264 260 256 254
214 213 214 214 215 216 217 218 220 222 223 223 223 224 225 226 228 230 232 234 236 239 241 242 244 246 248 250 252 255 257 259 261 263 265 267 269 274 278 282 284 284 285 288 293 297 299 299 298 299 302 302 302 303 305 307 310 312 312 311 312 312 310 306 302 300 299 299 300 300 296 293 292 291 288 285 284 283 281 278 275 272 269 268 264 259 255 252
213 213 213 213 214 214 215 216 218 220 221 221 222 223 224 225 226 228 230 233 235 237 238 240 241 243 245 248 250 252 253 255 257 259 262 265 269 274 278 281 282 283 286 291 295 298 297 296 297 300 301 301 302 303 305 308 311 313 312 311 311 311 308 305 302 300 300 299 301 300 295 292 290 289 286 283 280 280 279 276 272 269 268 266 264 261 256 251
212 212 212 212 212 212 213 214 216 218 219 220 221 222 223 224 225 226 228 230 232 234 236 237 239 241 242 244 246 247 249 251 254 258 262 266 270 273 277 279 280 283 288 293 296 297 296 295 296 298 300 301 303 304 306 309 312 311 310 310 311 311 309 305 302 301 299 297 297 296 292 289 287 287 286 283 279 276 276 275 272 270 268 266 264 262 258 253
211 210 210 210 210 211 212 213 215 217 218 220 220 221 222 222 223 224 226 228 230 232 233 235 237 238 239 241 242 244 247 250 254 259 263 267 270 273 276 277 281 286 291 294 295 295 294 294 295 297 299 302 304 306 308 309 308 308 308 307 308 307 304 302 301 299 296 292 290 288 286 283 283 285 286 285 281 276 274 274 274 273 273 273 269 265 261 257
210 208 208 208 208 209 211 212 214 216 218 219 219 220 220 221 221 222 223 226 228 230 232 234 235 236 237 239 240 242 246 250 254 259 263 266 270 273 275 279 284 289 292 293 294 293 292 293 294 297 301 304 305 306 307 306 306 308 307 304 302 300 299 300 300 295 291 289 287 285 281 279 279 282 284 286 284 279 274 274 276 276 276 277 276 273 267 261
208 206 205 205 206 208 210 211 213 216 217 217 217 218 218 219 219 220 221 224 226 228 230 231 233 234 235 237 240 243 246 250 254 258 262 266 269 273 277 283 287 290 292 292 292 291 292 293 295 298 303 304 304 304 303 303 305 307 306 304 300 298 299 301 299 294 290 288 286 283 280 278 277 278 281 285 287 285 280 276 278 279 278 277 277 275 271 263
206 204 203 203 204 206 208 210 212 214 215 215 215 216 217 217 217 218 220 222 224 226 227 229 231 233 234 237 240 243 246 250 253 257 261 265 270 275 280 284 287 290 291 291 291 291 291 293 296 300 303 303 302 301 300 299 300 302 303 301 298 300 305 307 303 299 296 293 290 285 281 279 277 277 280 284 288 290 290 288 286 286 284 282 279 275 271 265
203 202 201 201 203 205 206 208 211 212 213 213 214 214 216 216 216 217 219 221 222 224 226 229 232 234 236 238 240 243 246 250 254 258 262 266 271 276 280 285 288 289 290 290 291 291 291 294 297 301 303 302 301 300 297 297 299 301 301 298 298 305 311 313 310 306 305 303 298 291 287 286 284 284 285 288 291 293 297 299 296 293 289 285 282 277 271 264
201 200 199 200 202 204 206 207 209 211 212 212 212 214 215 216 217 217 218 220 221 223 225 228 231 233 235 238 241 243 247 251 255 258 262 267 272 276 281 285 287 289 290 290 290 290 292 295 299 301 302 301 301 298 296 300 305 306 299 296 302 306 307 312 315 314 316 314 307 302 300 299 297 294 295 296 297 296 297 299 298 297 294 291 289 285 277 267
199 199 199 200 202 204 205 207 209 210 211 211 212 214 215 217 218 219 220 220 221 222 224 226 229 232 235 238 240 242 246 250 254 259 264 268 273 278 281 284 287 289 289 289 289 291 293 297 301 304 304 302 299 296 298 308 315 307 295 294 298 298 301 315 320 319 323 322 320 319 317 317 312 306 306 305 303 300 298 299 301 303 303 302 301 297 290 281
197 197 199 200 202 203 204 206 208 210 211 212 213 214 216 218 219 219 220 220 221 222 224 226 228 231 234 237 239 243 247 252 257 262 266 271 275 278 281 284 287 288 288 287 288 291 295 299 304 306 305 300 295 293 300 314 321 300 291 290 287 291 306 319 319 322 330 330 330 330 331 338 338 327 320 314 309 306 304 304 307 311 312 313 315 314 308 300
195 196 198 199 201 202 203 205 208 209 211 212 212 213 215 216 217 218 218 218 219 220 222 226 229 231 234 237 241 245 251 256 260 264 268 272 275 278 282 285 287 286 284 284 287 292 297 303 306 305 300 292 288 291 301 312 306 282 278 277 281 297 310 314 317 326 336 336 332 332 337 344 347 340 331 325 324 322 319 318 318 319 320 322 325 325 322 315
194 195 196 198 199 201 202 204 206 208 209 210 211 212 213 214 216 216 217 217 218 219 220 224 229 233 237 241 245 249 254 259 263 266 269 272 276 279 282 284 284 283 282 283 288 294 300 304 304 298 291 285 285 293 303 305 280 259 249 260 282 297 304 311 318 325 332 333 330 332 336 340 342 343 341 342 344 341 333 325 318 316 318 323 325 324 321 316
194 195 196 197 199 201 202 203 205 206 207 208 209 211 212 214 215 216 217 217 218 218 220 223 227 233 237 242 246 251 256 260 264 266 269 272 275 278 281 281 280 280 281 285 289 295 301 303 301 293 287 285 286 294 304 289 246 237 232 241 257 275 291 303 309 312 319 325 330 332 335 338 341 345 347 349 347 342 331 316 308 309 314 318 320 317 313 308
193 195 195 196 198 200 202 204 205 206 206 207 208 210 213 215 217 217 217 217 218 219 220 222 226 230 236 241 246 251 255 259 262 264 267 271 274 276 278 279 278 280 283 286 291 297 300 300 295 288 284 282 283 290 291 249 227 227 227 226 219 241 265 275 284 293 303 315 325 329 333 339 342 344 346 345 338 327 315 306 303 306 311 314 313 310 307 302
191 193 194 195 197 198 201 203 205 206 206 207 208 211 213 216 217 218 217 217 218 220 221 224 227 230 235 239 244 248 252 255 259 262 266 270 273 275 276 276 277 279 282 287 294 299 299 296 289 282 277 275 277 282 271 231 220 222 226 226 214 221 241 256 271 285 297 310 322 328 331 337 341 341 338 330 320 310 305 305 306 308 311 312 311 309 307 304
189 190 192 194 195 197 199 201 203 205 206 207 209 211 213 215 216 216 216 217 218 220 222 224 227 231 234 238 241 246 250 254 258 262 265 269 271 272 272 273 276 278 284 291 297 297 294 288 278 269 268 268 270 268 246 220 218 223 228 233 228 230 243 253 265 279 293 305 316 322 323 327 331 331 325 313 306 303 303 305 306 307 308 307 307 307 305 304
187 187 189 190 192 195 197 200 202 204 205 207 209 211 213 214 214 213 214 216 217 220 222 224 227 230 234 238 242 247 251 254 258 261 264 267 268 269 271 273 277 281 288 293 294 292 288 280 265 257 259 264 262 249 234 223 226 234 236 238 239 241 248 255 264 277 289 297 304 310 314 316 317 316 312 305 302 303 304 304 304 304 303 302 303 303 302 300
186 187 188 188 190 192 195 197 200 203 205 208 210 213 213 213 213 213 213 216 218 221 224 226 229 233 237 241 244 248 251 255 258 261 263 265 266 268 271 274 278 283 287 288 289 287 282 275 265 257 255 255 248 241 242 241 241 245 247 249 252 255 260 267 274 280 286 291 297 307 314 315 314 312 308 303 304 306 307 306 303 301 299 299 299 299 297 294
185 186 187 188 189 191 193 195 196 199 204 207 210 212 212 212 212 212 212 215 219 222 225 228 232 236 239 242 245 248 252 254 257 259 262 263 265 266 269 273 278 281 281 282 280 275 271 267 260 255 248 239 232 234 242 246 239 239 242 247 254 260 266 272 275 279 285 291 298 306 312 313 314 312 307 303 303 306 307 306 304 302 300 300 299 299 296 293
183 184 185 186 187 189 191 192 193 195 199 203 206 207 207 208 209 210 211 213 216 220 223 227 231 235 238 241 244 247 250 253 256 259 261 261 263 266 271 275 277 276 275 272 265 262 262 256 246 240 233 225 220 220 224 226 229 234 237 240 247 255 261 265 271 279 289 296 301 307 310 312 314 312 309 308 306 306 306 306 306 305 305 304 303 301 298 294
182 182 183 183 185 187 189 190 190 191 193 197 200 202 203 204 206 208 211 213 216 219 223 227 230 233 237 240 244 247 251 254 256 257 259 263 267 273 276 276 274 270 265 257 254 255 252 241 232 227 222 219 218 222 226 229 234 240 244 246 249 254 260 267 275 286 294 299 305 310 311 312 312 310 310 310 309 309 309 310 310 308 305 302 300 298 296 293
180 180 181 182 184 185 186 187 188 188 188 191 195 197 199 201 203 205 209 213 217 221 225 229 233 236 240 243 246 248 251 253 256 259 263 268 273 275 275 273 269 263 253 248 248 246 238 229 224 221 219 221 225 232 239 243 245 249 252 254 256 259 266 274 283 290 294 298 303 306 306 307 308 308 309 309 310 310 310 312 311 305 299 297 296 297 297 295
179 179 180 182 183 184 185 186 186 185 185 188 192 194 196 199 202 205 208 211 216 220 224 229 234 237 241 244 247 248 251 254 258 262 267 270 271 271 270 268 263 253 244 240 238 234 230 226 223 222 224 227 232 239 246 250 252 256 259 261 265 271 278 283 287 291 296 300 303 303 303 304 305 305 306 306 307 307 307 307 303 296 292 293 294 296 297 297
179 180 180 181 183 185 186 187 185 183 185 187 189 192 196 199 203 207 212 214 217 220 223 227 232 236 240 244 247 250 254 257 260 265 267 268 266 264 262 259 254 245 236 233 231 232 232 230 226 227 231 233 235 241 247 253 259 263 266 269 274 280 284 288 292 296 298 300 300 300 300 301 302 303 304 304 304 302 301 301 299 295 292 291 291 291 293 294
179 180 180 182 184 185 186 186 183 183 185 186 189 193 196 200 205 208 211 214 216 219 221 224 230 235 239 242 246 250 255 259 262 262 261 259 257 255 253 247 241 237 232 230 232 234 236 234 229 228 233 238 241 244 250 257 262 265 270 276 282 286 289 293 296 297 297 297 297 298 300 302 303 303 303 302 300 299 298 298 299 295 290 288 289 289 290 292
179 181 182 183 186 186 185 185 184 185 187 188 189 193 197 201 205 207 208 211 213 217 220 221 225 231 236 242 249 255 258 258 257 254 253 251 249 247 240 232 231 231 231 231 234 236 237 237 236 232 234 241 247 251 256 261 265 269 274 280 285 288 291 295 296 296 297 298 299 301 302 303 304 303 302 300 299 299 299 297 295 290 284 281 282 283 285 288
Height
10960 10963 10967 10970 10973 10975 10978 10980 10982 10984 10986 10988 10990 10991 10993 10994 10995 10997 10998 10999 10999 11000 11000 11001 11002 11002 11002 11003 11003 11004 11005 11005 11004 11004 11004 11004 11004 11004 11003 11003 11002 11002 11001 11000 10999 10999 11000 11001 11000 10998 10997 10995 10993 10991 10989 10988 10988 10988 10987 10985 10983 10982 10980 10979 10977 10976 10974 10974 10973 10972 10972 10971 10971 10972 10972 10973 10975 10976 10977 10978 10979 10981 10982 10984 10986 10987 10988 10989
10956 10959 10963 10966 10969 10972 10975 10977 10979 10981 10983 10985 10987 10989 10990 10992 10993 10995 10996 10997 10997 10998 10999 10999 11000 11000 11000 11001 11001 11002 11003 11003 11003 11002 11002 11002 11002 11002 11002 11001 11001 11000 10999 10998 10997 10997 10998 10999 10998 10996 10995 10993 10991 10989 10986 10985 10985 10985 10983 10982 10980 10979 10978 10976 10974 10972 10971 10971 10970 10969 10969 10968 10968 10969 10970 10971 10972 10973 10974 10975 10976 10977 10979 10981 10983 10984 10986 10987
10952 10955 10959 10962 10965 10968 10971 10974 10976 10978 10980 10982 10984 10986 10988 10990 10991 10992 10994 10995 10995 10996 10997 10998 10998 10999 10999 10999 10999 11000 11001 11002 11001 11001 11001 11001 11001 11000 11000 11000 10999 10999 10998 10996 10995 10995 10995 10996 10996 10994 10992 10991 10989 10987 10984 10982 10982 10982 10981 10979 10977 10976 10975 10973 10971 10970 10969 10968 10968 10967 10966 10965 10965 10966 10967 10968 10969 10970 10972 10973 10974 10975 10976 10978 10980 10982 10983 10984
10948 10951 10955 10959 10962 10965 10968 10970 10973 10975 10977 10979 10981 10984 10985 10987 10989 10990 10991 10992 10993 10994 10995 10996 10997 10997 10997 10997 10997 10998 11000 11000 10999 10999 10999 10999 10999 10999 10998 10998 10998 10997 10996 10995 10994 10993 10991 10993 10993 10992 10990 10988 10987 10985 10982 10980 10978 10978 10978 10976 10974 10973 10972 10970 10969 10967 10966 10966 10965 10965 10964 10963 10963 10964 10965 10966 10967 10968 10969 10970 10972 10973 10974 10975 10977 10978 10980 10981
10943 10947 10951 10955 10958 10961 10964 10967 10969 10972 10974 10976 10978 10980 10983 10984 10986 10988 10989 10990 10991 10992 10994 10994 10995 10996 10996 10995 10995 10996 10998 10998 10997 10997 10997 10997 10997 10997 10996 10996 10996 10995 10995 10994 10993 10991 10989 10989 10990 10989 10987 10986 10985 10983 10981 10978 10976 10975 10974 10973 10971 10969 10968 10967 10966 10965 10964 10964 10963 10963 10962 10962 10962 10962 10963 10964 10965 10965 10966 10967 10969 10970 10972 10973 10974 10975 10976 10978
10939 10943 10947 10951 10954 10958 10961 10963 10966 10968 10971 10973 10975 10977 10979 10982 10983 10985 10987 10988 10989 10990 10991 10992 10993 10994 10994 10993 10993 10993 10996 10996 10996 10996 10996 10995 10995 10994 10994 10994 10994 10993 10993 10992 10992 10990 10988 10987 10987 10986 10984 10983 10982 10981 10979 10976 10974 10972 10971 10970 10968 10966 10965 10964 10964 10963 10963 10962 10962 10961 10961 10960 10960 10960 10961 10962 10963 10963 10963 10964 10965 10967 10968 10970 10971 10972 10973 10975
10934 10938 10942 10946 10950 10954 10957 10960 10963 10965 10967 10970 10972 10974 10976 10979 10981 10983 10984 10985 10987 10988 10989 10990 10991 10991 10992 10992 10991 10991 10994 10994 10994 10994 10994 10993 10993 10992 10992 10991 10992 10991 10990 10990 10990 10989 10987 10985 10984 10983 10982 10980 10979 10978 10977 10975 10973 10970 10968 10967 10966 10964 10963 10962 10962 10961 10961 10961 10960 10959 10959 10958 10958 10958 10959 10959 10960 10960 10961 10961 10962 10963 10965 10966 10967 10968 10969 10971
10929 10933 10938 10942 10946 10949 10953 10956 10959 10962 10964 10966 10969 10971 10973 10975 10978 10980 10982 10983 10984 10985 10987 10988 10989 10989 10990 10990 10989 10989 10991 10992 10992 10992 10992 10991 10990 10989 10989 10990 10990 10989 10988 10987 10987 10987 10986 10984 10981 10980 10978 10977 10975 10975 10974 10973 10971 10969 10966 10964 10963 10961 10961 10960 10959 10959 10958 10959 10958 10958 10957 10956 10956 10956 10956 10956 10957 10958 10958 10958 10959 10961 10961 10962 10963 10964 10966 10967
10924 10928 10933 10937 10941 10945 10949 10952 10955 10958 10961 10963 10965 10968 10970 10972 10975 10977 10979 10981 10982 10983 10984 10986 10986 10987 10987 10987 10987 10988 10989 10990 10990 10990 10990 10989 10987 10987 10987 10988 10988 10986 10985 10985 10985 10984 10983 10982 10980 10977 10975 10972 10971 10971 10971 10970 10970 10968 10965 10962 10960 10959 10958 10957 10956 10956 10956 10956 10956 10956 10955 10954 10953 10954 10954 10954 10954 10955 10956 10956 10957 10958 10959 10959 10960 10961 10962 10963
10919 10924 10928 10932 10937 10941 10944 10948 10951 10954 10957 10959 10962 10964 10967 10969 10971 10974 10976 10978 10980 10980 10982 10983 10984 10984 10985 10985 10985 10986 10986 10988 10988 10988 10987 10986 10985 10985 10986 10986 10985 10984 10983 10982 10982 10982 10981 10980 10979 10977 10974 10970 10967 10966 10967 10968 10967 10966 10964 10961 10958 10956 10955 10955 10953 10953 10953 10953 10954 10954 10953 10952 10951 10951 10951 10952 10952 10953 10954 10955 10955 10955 10956 10957 10958 10958 10959 10960
10914 10919 10923 10928 10932 10936 10940 10944 10947 10950 10953 10956 10958 10961 10964 10966 10968 10971 10973 10975 10977 10978 10979 10980 10981 10982 10982 10983 10983 10983 10984 10986 10986 10985 10985 10983 10982 10983 10984 10985 10983 10981 10981 10980 10979 10979 10978 10977 10977 10976 10974 10971 10967 10963 10963 10964 10965 10964 10962 10960 10957 10955 10953 10952 10951 10950 10950 10951 10952 10952 10951 10950 10950 10949 10949 10950 10950 10951 10952 10953 10953 10953 10953 10954 10955 10956 10957 10958
10909 10914 10918 10923 10927 10931 10936 10939 10942 10946 10949 10952 10955 10958 10960 10963 10965 10968 10970 10972 10974 10976 10977 10978 10979 10979 10980 10981 10981 10981 10982 10983 10983 10983 10982 10981 10980 10980 10982 10983 10981 10979 10979 10978 10977 10976 10976 10975 10974 10974 10973 10971 10968 10964 10961 10960 10961 10962 10961 10959 10956 10953 10951 10950 10949 10948 10947 10948 10949 10950 10949 10948 10948 10948 10948 10948 10948 10948 10949 10950 10950 10950 10951 10952 10952 10953 10954 10955
10904 10909 10913 10918 10922 10926 10931 10935 10938 10941 10945 10948 10951 10954 10957 10959 10962 10965 10967 10969 10972 10973 10974 10975 10976 10977 10978 10979 10979 10979 10979 10980 10980 10980 10980 10978 10978 10978 10980 10980 10978 10977 10977 10976 10975 10974 10973 10972 10971 10970 10970 10969 10967 10965 10962 10959 10958 10958 10958 10957 10955 10952 10950 10948 10947 10946 10945 10945 10946 10947 10947 10946 10946 10947 10947 10947 10946 10946 10946 10947 10948 10948 10948 10949 10950 10950 10951 10951
10900 10904 10908 10913 10917 10921 10926 10930 10934 10937 10941 10944 10948 10951 10953 10956 10959 10961 10964 10966 10969 10971 10971 10972 10974 10975 10976 10977 10977 10977 10977 10977 10978 10978 10977 10976 10975 10975 10977 10978 10977 10975 10975 10973 10973 10972 10970 10969 10968 10967 10968 10967 10966 10964 10963 10960 10957 10956 10955 10955 10954 10952 10949 10947 10946 10946 10944 10943 10943 10944 10943 10943 10944 10945 10946 10945 10944 10944 10944 10944 10945 10945 10946 10946 10946 10947 10947 10948
10895 10899 10904 10908 10912 10916 10921 10925 10929 10933 10937 10941 10944 10947 10950 10953 10955 10958 10961 10963 10966 10968 10969 10970 10971 10973 10974 10974 10974 10974 10974 10975 10975 10975 10975 10974 10973 10973 10975 10977 10975 10973 10972 10971 10971 10970 10968 10967 10965 10965 10965 10964 10963 10962 10961 10960 10957 10955 10954 10953 10952 10951 10948 10946 10946 10946 10944 10942 10941 10940 10940 10940 10941 10942 10944 10943 10943 10942 10941 10941 10941 10941 10942 10943 10943 10943 10944 10945
10891 10895 10899 10903 10907 10911 10916 10920 10924 10929 10933 10937 10940 10943 10946 10949 10952 10955 10958 10960 10963 10965 10966 10967 10969 10971 10971 10971 10972 10972 10972 10973 10972 10972 10972 10972 10971 10970 10973 10975 10973 10970 10970 10969 10969 10968 10966 10964 10962 10962 10962 10961 10960 10960 10960 10958 10956 10954 10953 10952 10951 10950 10948 10947 10946 10945 10943 10940 10938 10937 10936 10937 10938 10939 10941 10941 10941 10940 10939 10938 10938 10938 10938 10939 10940 10941 10941 10942
10886 10890 10894 10898 10902 10906 10911 10915 10920 10925 10930 10933 10936 10939 10942 10945 10948 10951 10954 10957 10960 10961 10963 10964 10966 10968 10968 10969 10969 10969 10970 10970 10970 10970 10970 10969 10968 10969 10972 10972 10969 10968 10968 10967 10967 10966 10963 10961 10960 10960 10959 10958 10958 10958 10958 10956 10954 10953 10952 10951 10950 10949 10948 10947 10946 10944 10942 10938 10935 10933 10932 10934 10935 10936 10938 10938 10938 10938 10937 10936 10935 10935 10934 10935 10937 10938 10939 10940
10881 10885 10889 10893 10897 10901 10906 10910 10915 10920 10925 10929 10933 10935 10938 10942 10945 10948 10951 10954 10956 10958 10960 10961 10963 10965 10965 10966 10966 10966 10967 10968 10968 10968 10967 10966 10966 10969 10971 10969 10966 10966 10966 10965 10965 10963 10961 10958 10958 10957 10955 10955 10955 10956 10955 10954 10952 10950 10949 10949 10948 10948 10947 10945 10944 10942 10940 10937 10933 10930 10928 10929 10931 10933 10936 10935 10935 10935 10934 10933 10932 10932 10932 10932 10933 10934 10936 10938
10877 10881 10885 10888 10892 10897 10901 10906 10910 10915 10920 10925 10929 10931 10934 10938 10942 10945 10948 10951 10953 10955 10957 10958 10960 10961 10962 10963 10963 10964 10965 10966 10966 10966 10965 10963 10964 10968 10969 10966 10964 10964 10964 10963 10962 10960 10958 10956 10955 10954 10952 10952 10953 10953 10952 10951 10950 10948 10947 10947 10946 10946 10945 10943 10942 10940 10938 10935 10931 10928 10926 10926 10927 10929 10933 10933 10931 10931 10931 10930 10930 10930 10930 10929 10930 10931 10932 10934
10873 10876 10880 10884 10888 10892 10896 10901 10906 10910 10916 10921 10925 10928 10931 10934 10939 10942 10944 10947 10950 10951 10953 10954 10956 10958 10959 10960 10961 10962 10963 10963 10964 10963 10962 10961 10963 10966 10966 10963 10962 10961 10961 10961 10959 10958 10956 10954 10953 10951 10950 10950 10950 10949 10949 10948 10948 10946 10945 10945 10944 10943 10942 10940 10938 10937 10935 10932 10929 10925 10923 10923 10923 10925 10930 10930 10928 10927 10927 10927 10927 10927 10927 10927 10927 10927 10928 10930
10869 10873 10876 10880 10884 10888 10892 10897 10901 10906 10911 10916 10920 10924 10927 10931 10935 10938 10941 10944 10946 10947 10949 10950 10952 10955 10956 10958 10959 10960 10961 10961 10961 10961 10960 10959 10961 10964 10963 10961 10959 10959 10959 10958 10957 10955 10954 10952 10951 10949 10949 10948 10947 10946 10946 10945 10945 10944 10943 10943 10942 10940 10939 10937 10935 10933 10932 10930 10927 10924 10920 10920 10921 10922 10926 10926 10925 10924 10923 10923 10923 10924 10924 10924 10924 10924 10924 10926
10865 10869 10873 10877 10881 10885 10889 10893 10898 10902 10907 10912 10916 10920 10924 10928 10932 10934 10937 10940 10941 10943 10945 10947 10950 10953 10954 10956 10957 10958 10958 10958 10958 10958 10957 10958 10959 10961 10960 10958 10957 10957 10956 10956 10954 10953 10952 10951 10949 10948 10948 10946 10944 10942 10942 10943 10943 10942 10941 10940 10939 10937 10936 10934 10932 10930 10929 10927 10925 10922 10917 10916 10918 10919 10921 10922 10921 10920 10919 10919 10920 10920 10921 10921 10921 10922 10922 10923
10861 10865 10869 10874 10878 10882 10886 10890 10894 10898 10903 10908 10913 10917 10921 10924 10926 10929 10933 10935 10937 10939 10942 10945 10948 10950 10951 10952 10954 10955 10956 10955 10955 10955 10956 10956 10957 10958 10957 10956 10956 10955 10954 10953 10952 10951 10950 10949 10948 10947 10946 10944 10942 10940 10939 10940 10940 10939 10939 10938 10937 10935 10933 10931 10929 10927 10926 10924 10922 10920 10915 10912 10915 10916 10917 10917 10917 10916 10916 10915 10916 10917 10917 10918 10918 10919 10920 10920
10858 10862 10866 10870 10875 10879 10882 10886 10891 10895 10899 10904 10909 10912 10915 10918 10920 10924 10928 10930 10932 10935 10939 10942 10945 10946 10947 10949 10951 10952 10952 10952 10953 10953 10953 10954 10955 10955 10955 10954 10954 10954 10952 10950 10950 10950 10949 10948 10946 10945 10944 10941 10940 10938 10938 10937 10936 10936 10937 10936 10934 10932 10930 10928 10926 10924 10923 10921 10920 10917 10912 10909 10912 10914 10914 10914 10913 10912 10912 10912 10912 10912 10913 10914 10915 10916 10918 10918
10854 10858 10863 10867 10871 10875 10880 10884 10888 10892 10896 10900 10903 10906 10909 10912 10916 10920 10923 10926 10929 10933 10936 10939 10941 10943 10944 10946 10948 10949 10949 10950 10950 10950 10951 10952 10952 10952 10952 10952 10952 10952 10950 10949 10948 10948 10947 10946 10944 10943 10941 10939 10938 10937 10936 10935 10934 10933 10933 10932 10931 10929 10927 10925 10923 10922 10920 10918 10917 10914 10909 10906 10908 10910 10911 10911 10910 10908 10908 10909 10909 10909 10909 10910 10912 10914 10915 10916
10851 10855 10859 10864 10868 10873 10877 10882 10885 10888 10891 10894 10897 10901 10904 10908 10913 10916 10919 10923 10927 10930 10933 10935 10937 10939 10941 10943 10944 10946 10947 10947 10947 10947 10948 10949 10949 10949 10949 10950 10950 10949 10948 10947 10947 10947 10946 10943 10942 10940 10939 10937 10935 10935 10934 10933 10932 10931 10930 10928 10928 10927 10924 10922 10920 10919 10917 10915 10914 10912 10907 10904 10905 10906 10907 10908 10908 10906 10905 10905 10906 10906 10906 10907 10908 10911 10913 10914
10847 10852 10856 10861 10866 10871 10875 10879 10881 10883 10886 10889 10892 10896 10900 10905 10909 10913 10916 10920 10924 10926 10929 10931 10933 10936 10939 10940 10941 10943 10944 10943 10944 10945 10946 10947 10947 10947 10948 10948 10947 10946 10945 10945 10945 10944 10943 10941 10939 10938 10936 10934 10933 10932 10931 10931 10931 10929 10926 10924 10924 10924 10921 10918 10916 10915 10914 10912 10911 10909 10906 10903 10902 10903 10904 10906 10907 10905 10902 10902 10903 10903 10904 10904 10905 10908 10910 10912
10844 10848 10854 10859 10863 10868 10871 10874 10876 10878 10881 10884 10888 10892 10897 10902 10907 10910 10914 10918 10920 10922 10925 10927 10930 10933 10936 10937 10939 10940 10940 10940 10941 10942 10943 10945 10945 10946 10946 10945 10944 10944 10944 10944 10943 10942 10940 10938 10937 10936 10934 10932 10930 10929 10929 10929 10928 10927 10924 10922 10921 10920 10918 10915 10913 10912 10911 10910 10909 10907 10905 10902 10900 10900 10901 10903 10905 10903 10901 10900 10900 10901 10902 10902 10903 10905 10907 10909
10841 10846 10851 10856 10861 10864 10867 10869 10872 10874 10877 10881 10886 10890 10895 10899 10903 10907 10911 10914 10915 10918 10921 10924 10927 10931 10932 10934 10935 10936 10937 10938 10939 10940 10941 10942 10943 10944 10944 10943 10942 10942 10942 10941 10941 10939 10937 10935 10934 10934 10933 10931 10929 10927 10926 10925 10925 10924 10922 10920 10919 10918 10916 10913 10911 10910 10908 10907 10907 10906 10904 10901 10899 10897 10898 10900 10901 10901 10900 10898 10898 10899 10900 10900 10900 10902 10904 10906
10838 10843 10848 10853 10857 10860 10862 10865 10868 10870 10874 10879 10884 10888 10892 10896 10900 10904 10907 10909 10911 10915 10919 10921 10924 10927 10929 10930 10932 10933 10935 10936 10937 10939 10940 10940 10941 10941 10941 10940 10940 10940 10940 10939 10938 10936 10934 10933 10932 10931 10931 10930 10928 10926 10923 10921 10920 10920 10919 10918 10917 10916 10914 10912 10910 10908 10906 10904 10904 10903 10901 10900 10898 10896 10896 10897 10898 10898 10898 10896 10896 10897 10897 10898 10898 10899 10901 10903
10835 10840 10845 10850 10853 10856 10859 10862 10865 10867 10872 10877 10881 10885 10889 10892 10896 10900 10903 10905 10908 10912 10915 10918 10921 10923 10925 10927 10929 10931 10933 10934 10935 10937 10938 10938 10939 10939 10939 10938 10938 10938 10937 10936 10935 10934 10932 10931 10930 10929 10929 10927 10925 10924 10922 10919 10917 10916 10915 10913 10913 10913 10912 10911 10908 10906 10905 10903 10902 10901 10899 10898 10897 10896 10895 10895 10895 10894 10894 10894 10894 10895 10896 10896 10897 10897 10898 10901
10831 10837 10841 10845 10848 10851 10855 10858 10861 10864 10869 10873 10878 10882 10885 10889 10892 10896 10898 10901 10904 10908 10912 10914 10917 10920 10923 10925 10927 10930 10931 10932 10933 10934 10935 10936 10937 10937 10937 10936 10935 10935 10934 10932 10932 10931 10929 10928 10928 10927 10927 10924 10922 10921 10918 10917 10916 10915 10913 10911 10910 10910 10909 10909 10907 10905 10904 10902 10901 10899 10897 10896 10896 10895 10894 10894 10893 10891 10891 10892 10893 10893 10894 10895 10895 10895 10896 10899
10828 10833 10837 10841 10844 10847 10850 10853 10857 10861 10866 10871 10875 10879 10882 10885 10888 10891 10894 10898 10902 10906 10909 10912 10915 10919 10921 10924 10926 10928 10929 10930 10931 10932 10933 10935 10935 10935 10935 10934 10933 10932 10930 10929 10928 10927 10927 10926 10925 10925 10924 10921 10919 10917 10915 10914 10914 10914 10912 10910 10908 10907 10907 10906 10905 10903 10902 10901 10899 10898 10897 10895 10895 10894 10893 10892 10891 10890 10890 10890 10891 10892 10892 10893 10893 10894 10895 10896
10825 10829 10834 10837 10840 10843 10846 10850 10854 10859 10863 10868 10872 10875 10878 10881 10885 10889 10892 10896 10900 10904 10908 10911 10914 10917 10920 10922 10925 10926 10927 10928 10929 10930 10932 10933 10933 10933 10932 10931 10930 10929 10927 10926 10925 10924 10924 10924 10923 10922 10921 10918 10916 10913 10911 10911 10912 10911 10910 10909 10907 10906 10905 10904 10902 10900 10899 10899 10898 10897 10896 10895 10894 10893 10892 10891 10890 10889 10888 10888 10889 10889 10891 10891 10892 10893 10893 10894
10822 10827 10831 10833 10836 10840 10845 10849 10853 10857 10861 10866 10869 10872 10876 10880 10884 10888 10892 10895 10899 10902 10906 10909 10912 10915 10918 10921 10923 10924 10925 10926 10927 10928 10929 10930 10931 10931 10930 10929 10927 10926 10925 10923 10922 10922 10921 10921 10921 10920 10918 10915 10912 10910 10909 10909 10910 10909 10908 10907 10907 10905 10904 10902 10901 10899 10898 10897 10897 10896 10895 10894 10893 10892 10891 10890 10889 10888 10887 10887 10887 10888 10889 10890 10891 10891 10892 10892
10820 10824 10828 10831 10835 10840 10844 10847 10851 10855 10859 10863 10867 10871 10876 10881 10885 10888 10891 10895 10898 10901 10905 10907 10910 10913 10916 10919 10920 10921 10923 10924 10925 10926 10927 10928 10928 10928 10927 10926 10925 10924 10922 10921 10920 10919 10919 10919 10919 10918 10916 10912 10909 10908 10908 10908 10909 10907 10907 10906 10905 10904 10902 10901 10900 10898 10897 10896 10895 10894 10893 10892 10891 10890 10890 10889 10888 10888 10887 10887 10887 10887 10888 10888 10889 10890 10890 10890
10817 10821 10825 10829 10833 10837 10841 10845 10849 10853 10857 10862 10867 10872 10876 10880 10883 10886 10889 10892 10896 10899 10903 10906 10908 10911 10914 10916 10918 10920 10921 10922 10924 10924 10925 10925 10926 10925 10924 10924 10922 10921 10919 10918 10918 10917 10917 10917 10916 10915 10913 10910 10907 10906 10907 10908 10908 10907 10906 10905 10904 10903 10901 10900 10899 10898 10897 10895 10895 10894 10893 10891 10891 10890 10889 10889 10888 10888 10887 10887 10886 10886 10887 10887 10888 10888 10889 10888
10815 10819 10823 10827 10830 10834 10838 10842 10847 10852 10857 10862 10867 10871 10875 10878 10881 10883 10886 10889 10893 10897 10901 10904 10907 10910 10913 10915 10917 10919 10920 10921 10922 10922 10922 10923 10923 10922 10921 10920 10919 10917 10916 10916 10916 10916 10914 10914 10913 10912 10910 10907 10905 10905 10906 10907 10907 10906 10905 10904 10903 10901 10900 10900 10899 10898 10896 10896 10895 10894 10893 10891 10891 10890 10890 10889 10888 10888 10887 10886 10886 10886 10886 10886 10887 10887 10888 10888
10814 10817 10821 10825 10829 10833 10838 10842 10846 10851 10856 10861 10866 10869 10872 10875 10878 10881 10884 10888 10892 10895 10899 10902 10905 10908 10911 10914 10915 10917 10918 10918 10919 10919 10919 10920 10920 10919 10918 10917 10916 10914 10913 10913 10913 10913 10913 10911 10910 10909 10907 10905 10904 10904 10905 10905 10905 10904 10903 10903 10902 10901 10900 10899 10898 10897 10896 10896 10895 10894 10893 10892 10891 10891 10890 10889 10888 10888 10887 10886 10886 10885 10885 10886 10886 10887 10887 10887
10813 10817 10821 10825 10830 10834 10838 10843 10847 10852 10856 10860 10864 10867 10870 10873 10877 10880 10884 10887 10891 10894 10897 10901 10903 10906 10909 10911 10913 10914 10915 10916 10916 10916 10916 10917 10917 10916 10915 10914 10913 10912 10910 10910 10910 10910 10911 10909 10908 10907 10905 10904 10903 10903 10903 10904 10903 10902 10902 10901 10901 10900 10899 10898 10897 10896 10895 10895 10894 10894 10892 10892 10891 10891 10890 10889 10888 10887 10886 10886 10885 10885 10885 10886 10886 10886 10886 10886
10814 10818 10822 10826 10830 10834 10839 10843 10848 10852 10856 10859 10863 10866 10870 10873 10877 10881 10884 10887 10890 10893 10897 10899 10902 10905 10907 10909 10910 10911 10912 10912 10912 10913 10913 10914 10913 10913 10912 10911 10910 10909 10907 10907 10907 10907 10907 10907 10906 10905 10904 10902 10902 10902 10902 10902 10902 10901 10901 10900 10900 10900 10899 10898 10897 10896 10895 10894 10894 10894 10893 10892 10892 10891 10891 10890 10888 10887 10886 10885 10885 10885 10885 10885 10885 10885 10884 10884
10815 10819 10823 10827 10831 10836 10840 10844 10848 10852 10856 10859 10863 10866 10870 10874 10878 10881 10884 10887 10890 10893 10896 10898 10901 10903 10904 10906 10907 10907 10908 10909 10909 10910 10910 10911 10910 10910 10909 10908 10907 10906 10905 10905 10905 10904 10904 10904 10904 10903 10902 10901 10902 10902 10901 10901 10900 10900 10900 10900 10899 10899 10899 10898 10897 10896 10895 10894 10894 10894 10893 10892 10892 10891 10891 10889 10888 10887 10886 10885 10884 10884 10884 10884 10883 10883 10883 10882
10815 10818 10822 10827 10831 10836 10840 10844 10848 10852 10856 10860 10863 10867 10871 10875 10877 10880 10883 10886 10889 10891 10894 10896 10898 10900 10901 10902 10904 10904 10905 10905 10906 10906 10907 10907 10907 10907 10906 10905 10904 10903 10904 10903 10902 10901 10900 10901 10901 10901 10901 10901 10901 10901 10900 10900 10900 10900 10899 10899 10899 10898 10898 10897 10897 10896 10895 10895 10894 10893 10893 10892 10892 10891 10890 10889 10888 10886 10886 10885 10884 10884 10883 10882 10882 10881 10881 10880
10814 10818 10822 10826 10830 10835 10839 10843 10848 10853 10857 10861 10865 10868 10872 10874 10876 10879 10882 10885 10887 10889 10892 10894 10895 10897 10898 10900 10901 10901 10902 10902 10903 10903 10904 10904 10904 10904 10904 10903 10901 10901 10901 10900 10899 10898 10898 10898 10898 10898 10899 10900 10900 10900 10900 10900 10900 10900 10899 10899 10898 10897 10896 10896 10896 10895 10895 10894 10893 10893 10892 10892 10891 10890 10890 10888 10887 10886 10885 10885 10884 10883 10882 10881 10881 10880 10879 10878
10815 10819 10823 10827 10831 10835 10839 10843 10848 10853 10858 10862 10865 10868 10871 10873 10876 10878 10881 10883 10886 10888 10890 10892 10893 10894 10895 10896 10897 10898 10898 10899 10900 10900 10901 10901 10902 10902 10901 10900 10900 10899 10899 10898 10898 10897 10896 10897 10897 10897 10897 10898 10898 10899 10899 10899 10899 10899 10899 10898 10897 10896 10895 10894 10894 10894 10893 10893 10892 10892 10892 10891 10891 10890 10889 10888 10887 10886 10885 10884 10882 10881 10880 10879 10879 10878 10876 10875
10815 10819 10824 10828 10832 10836 10840 10844 10848 10853 10857 10861 10864 10866 10869 10872 10874 10877 10879 10881 10883 10885 10887 10889 10890 10891 10891 10892 10893 10894 10895 10895 10896 10897 10897 10898 10898 10899 10898 10898 10897 10896 10896 10896 10895 10895 10894 10895 10896 10896 10896 10896 10897 10897 10897 10897 10897 10896 10896 10896 10895 10894 10894 10893 10892 10892 10892 10892 10891 10891 10891 10890 10890 10889 10888 10887 10886 10885 10884 10882 10880 10879 10877 10876 10875 10874 10872 10870
10815 10819 10824 10828 10832 10835 10839 10844 10848 10852 10856 10859 10862 10865 10867 10870 10873 10875 10878 10879 10881 10883 10884 10886 10886 10887 10888 10889 10890 10891 10892 10892 10893 10894 10894 10895 10896 10895 10895 10894 10893 10893 10893 10893 10893 10893 10893 10894 10895 10895 10896 10896 10896 10896 10895 10895 10895 10894 10894 10894 10894 10893 10892 10891 10891 10891 10891 10890 10890 10889 10889 10888 10887 10886 10885 10884 10883 10882 10881 10879 10877 10875 10872 10870 10869 10868 10866 10864
10815 10820 10824 10827 10830 10834 10838 10843 10847 10851 10854 10857 10860 10863 10865 10868 10871 10873 10875 10877 10879 10880 10881 10882 10883 10884 10885 10886 10887 10888 10889 10889 10890 10891 10892 10892 10892 10892 10891 10890 10890 10890 10891 10891 10891 10892 10892 10893 10894 10894 10895 10895 10895 10894 10894 10894 10893 10892 10892 10892 10891 10891 10890 10890 10890 10889 10889 10889 10888 10888 10887 10886 10885 10883 10882 10881 10879 10878 10876 10875 10873 10869 10865 10863 10862 10860 10859 10857
10816 10819 10823 10827 10830 10834 10837 10841 10845 10849 10852 10855 10858 10861 10863 10866 10868 10870 10872 10873 10875 10876 10878 10879 10880 10881 10882 10883 10884 10885 10886 10887 10888 10888 10889 10889 10889 10888 10887 10887 10887 10888 10889 10889 10890 10890 10890 10892 10893 10893 10894 10893 10893 10892 10892 10891 10890 10890 10890 10889 10889 10889 10889 10889 10888 10888 10887 10887 10886 10885 10884 10883 10882 10881 10879 10878 10876 10874 10873 10871 10867 10862 10858 10855 10855 10854 10852 10851
10816 10819 10823 10826 10830 10833 10837 10840 10844 10847 10850 10853 10856 10858 10861 10863 10866 10867 10869 10870 10872 10874 10876 10877 10878 10879 10880 10881 10882 10883 10883 10884 10885 10886 10886 10885 10885 10885 10885 10885 10886 10886 10887 10888 10888 10888 10889 10891 10892 10892 10892 10892 10891 10891 10890 10889 10888 10888 10887 10886 10887 10887 10887 10886 10886 10886 10885 10885 10884 10883 10882 10881 10880 10878 10876 10874 10873 10871 10868 10866 10861 10857 10854 10852 10850 10849 10848 10846
10816 10819 10823 10826 10829 10832 10836 10839 10843 10846 10848 10851 10854 10856 10858 10861 10862 10863 10865 10867 10870 10872 10874 10875 10877 10877 10878 10879 10880 10881 10881 10881 10882 10882 10882 10882 10882 10882 10883 10883 10884 10885 10886 10886 10887 10887 10888 10889 10890 10891 10890 10890 10890 10889 10888 10887 10886 10885 10884 10884 10884 10884 10884 10884 10884 10883 10883 10882 10881 10880 10879 10878 10877 10875 10872 10870 10868 10866 10863 10861 10858 10855 10852 10849 10846 10845 10843 10841
10816 10819 10822 10825 10828 10832 10835 10839 10841 10844 10846 10848 10850 10853 10854 10856 10857 10859 10862 10865 10867 10869 10871 10872 10874 10875 10876 10877 10878 10879 10879 10879 10879 10879 10879 10879 10880 10880 10881 10882 10883 10884 10885 10885 10885 10886 10886 10887 10888 10889 10889 10889 10888 10888 10887 10885 10884 10884 10882 10882 10882 10882 10881 10881 10880 10880 10879 10878 10877 10876 10875 10874 10872 10870 10867 10865 10862 10860 10858 10856 10854 10852 10849 10845 10842 10840 10838 10836